Location: Newark
(33.4133°N, 82.3847°W)
Time: 20:43:42
(UTC+00:00)

Hubble Space Telescope - Pass Details

Date: 02 February 2020
Orbit: 536 x 540 km, 28.5° (Epoch: 26 February)

Event Time Altitude Azimuth Distance (km) Brightness Sun altitude
Exits shadow 11:26:07 13° 244° (WSW) 1,582 2.7 -12.7°
Maximum altitude 11:29:27 40° 177° (S) 785 1.7 -12.0°
Drops below altitude 10° 11:33:19 10° 106° (ESE) 1,778 5.0 -11.2°
Sets 11:35:40 0° 99° (E) 2,669 6.6 -10.7°
